カタログに戻る

FENGYUN 1C DEB

運用中SSO
NORAD 30806·DEBRIS·🇨🇳 China

打ち上げ May 10, 1999 から Taiyuan Satellite Launch Center

Loading…

次のパス (今後24時間)

TLE

最新Source: Space-Track

元期: Sep 14, 2026, 12:22 UTC

1 30806U 99025AUQ 26257.51533529  .00000505  00000-0  47166-3 0  9994
2 30806  99.0194 272.6139 0268948 124.2049  27.3732 13.70927520974730

AllMySatでFENGYUN 1C DEBをリアルタイム追跡

Download on the App Store